Simultaneous Nadir Overpasses (SNOs) Predictions

Prediction of SNOs between AURA and NPP Satellite Orbit:

Table of predicted SNOs for the next 14.0 days since TLE Epoch: 2/26/2022
Index Date (AURA) Time (AURA) Lat,Lon (AURA) SZA (AURA ) Date (NPP) Time (NPP) Lat,Lon (NPP) SZA (NPP ) Distance(km) Time Diff (sec)
1 02/26/2022 11:25:21 79.57, -93.85 101.32 02/26/2022 11:24:48 79.56, -93.93 101.36 1.78 33
2 02/26/2022 12:14:41 -79.83, 75.73 79.09 02/26/2022 12:15:25 -79.83, 75.76 79.13 0.65 44
3 03/01/2022 03:41:51 79.62, 22.39 100.23 03/01/2022 03:41:42 79.62, 22.30 100.25 1.84 9
4 03/01/2022 04:31:11 -79.88,-168.00 80.18 03/01/2022 04:32:19 -79.88,-167.97 80.24 0.50 68
5 03/03/2022 19:08:58 -79.55, -29.86 80.69 03/03/2022 19:07:55 -79.56, -29.72 80.67 3.03 63
6 03/03/2022 19:58:19 79.73, 139.09 99.03 03/03/2022 19:58:34 79.73, 139.09 99.02 0.17 15
7 03/06/2022 11:25:28 -79.58, 86.22 81.78 03/06/2022 11:24:50 -79.58, 86.21 81.75 0.14 38
8 03/06/2022 12:14:49 79.76,-104.83 97.94 03/06/2022 12:15:29 79.75,-104.98 97.94 3.13 40
9 03/09/2022 03:41:56 -79.63,-157.51 82.92 03/09/2022 03:41:43 -79.63,-157.59 82.89 1.55 13
10 03/09/2022 04:31:14 79.91, 12.28 96.64 03/09/2022 04:32:18 79.92, 12.38 96.58 2.08 64
11 03/11/2022 19:09:04 79.44, 149.33 96.33 03/11/2022 19:07:59 79.43, 149.19 96.41 3.07 65



Historial Predications of SNOs between AURA and NPP
